{"data":{"norad_id":85419,"epoch":"2026-06-09T12:32:30.573312Z","epoch_age_seconds":8911336,"freshness":"OLD","line1":"1 85419U          26160.52257608  .00075903  00000+0  10755-2 0  9990","line2":"2 85419  55.0017 340.4318 0008125 260.8072  99.2045 15.55832235    10","mean_motion":15.55832235,"eccentricity":0.0008125,"inclination_deg":55.0017,"raan_deg":340.4318,"arg_perigee_deg":260.8072,"mean_anomaly_deg":99.2045,"bstar":0.0010755,"rev_number":1,"period_min":92.554966249301,"perigee_km":394.22748279152,"apogee_km":405.24152398452,"semimajor_km":6777.871503388,"source":"CELESTRAK","updated_at":"2026-07-09T09:01:41.477789Z"}}